This demonstration page uses our WeatherBlox Daily Observations layout. Learn more.

Left ArrowRight Arrow

Hourly Observations for September 22, 2021

Temp ( °F °C ) Dew Point ( °F °C ) Humidity (%) Winds ( mph kmh ) Pressure ( in mb ) Visibility ( mi km ) Precip ( " mm )
12:52 am 00:52 Clear 52 11.1 45 7.2 77 77 NNW 3 6 30.35 1028 10 16 0.00 0.00
1:52 am 01:52 Clear 49 9.4 44 6.7 83 83 N 6 9 30.35 1028 10 16 0.00 0.00
2:52 am 02:52 Clear 47 8.3 43 6.1 86 86 NNW 5 7 30.35 1028 10 16 0.00 0.00
3:52 am 03:52 Clear 45 7.2 43 6.1 93 93 N 6 9 30.35 1028 10 16 0.00 0.00
4:52 am 04:52 Clear 46 7.8 43 6.1 89 89 NNW 5 7 30.35 1028 10 16 0.00 0.00
5:52 am 05:52 Clear 44 6.7 41 5 89 89 NNW 5 7 30.37 1028 10 16 0.00 0.00
6:52 am 06:52 Mostly Clear with Patchy Fog 45 7.2 42 5.6 90 90 N 5 7 30.37 1028 10 16 0.00 0.00
7:52 am 07:52 Partly Cloudy with Patchy Fog 45 7.2 43 6.1 93 93 NNW 6 9 30.37 1029 10 16 0.00 0.00
8:52 am 08:52 Sunny 51 10.6 44 6.7 77 77 NNW 5 7 30.37 1029 10 16 0.00 0.00
9:52 am 09:52 Sunny 57 13.9 46 7.8 67 67 NNW 3 6 30.38 1029 10 16 0.00 0.00
10:52 am 10:52 Sunny 65 18.3 44 6.7 47 47 Calm 30.38 1029 10 16 0.00 0.00
11:52 am 11:52 Mostly Sunny 65 18.3 41 5 42 42 SSW 3 6 30.36 1028 10 16 0.00 0.00
12:52 pm 12:52 Sunny 67 19.4 40 4.4 37 37 Calm 30.33 1027 10 16 0.00 0.00
1:52 pm 13:52 Sunny 71 21.7 38 3.3 30 30 VRB 3 6 30.29 1026 10 16 0.00 0.00
2:52 pm 14:52 Sunny 73 22.8 39 3.9 29 29 Calm 30.27 1025 10 16 0.00 0.00
3:52 pm 15:52 Sunny 72 22.2 37 2.8 28 28 VRB 3 6 30.24 1024 10 16 0.00 0.00
4:52 pm 16:52 Sunny 73 22.8 37 2.8 27 27 WNW 3 6 30.21 1023 10 16 0.00 0.00
5:52 pm 17:52 Sunny 73 22.8 38 3.3 28 28 Calm 30.19 1023 10 16 0.00 0.00
6:52 pm 18:52 Sunny 70 21.1 39 3.9 32 32 ENE 5 7 30.18 1022 10 16 0.00 0.00
7:52 pm 19:52 Clear 59 15 46 7.8 62 62 SE 5 7 30.18 1022 10 16 0.00 0.00
8:52 pm 20:52 Clear 59 15 44 6.7 58 58 E 3 6 30.18 1022 10 16 0.00 0.00
9:52 pm 21:52 Clear 54 12.2 47 8.3 77 77 Calm 30.18 1022 10 16 0.00 0.00
10:52 pm 22:52 Clear 51 10.6 47 8.3 86 86 Calm 30.16 1021 10 16 0.00 0.00
11:52 pm 23:52 Clear 52 11.1 46 7.8 80 80 Calm 30.16 1021 10 16 0.00 0.00

Powered by AerisWeather